Details From SBUL - TEN CEL AV CESAR BOMBONATO
To SBGO - Santo Genoveva
Flight Number -
Tags generated
Created
Modified
Stats Distance 147 nm / 272 km
Max Altitude 7,100 ft / 2,164 m
Waypoints 4
Social Downloads 1
Likes 0
Share VATSIM

Download

Looking for another format? Having issues loading an existing format? Contact us
Advertisement - Login to hide

Notes

Basic altitude profile: - Ascent Rate: 2500ft/min - Ascent Speed: 250kts - Cruise Altitude: 35000ft - Cruise Speed: 420kts - Descent Rate: 1500ft/min - Descent Speed: 250kts Options: - Use NATs: yes - Use PACOTS: yes - Use low airways: yes - Use high airways: yes

Route

SBUL GUARI W24 GAZAR SBGO

ID Type Via Altitude (ft/m) Position (lat/lon) Dist (leg/tot) Name
O SBUL APT - 0 / 0 -18.88284 / -48.22559 - / 0 nm TEN CEL AV CESAR BOMBONATO
GUARI FIX - 7,100 / 2,164 -18.57883 / -48.36633 19 / 19 nm
GAZAR FIX W24 (AWY-LO) 5,800 / 1,768 -17.04883 / -49.03550 99 / 119 nm
O SBGO APT - 0 / 0 -16.63203 / -49.22069 27 / 146 nm Santo Genoveva

Altitude Profile

Advertisement - Login to hide

SBUL

Details ICAO SBUL (UDI)
Name Uberlandia Airport Ten Cel AV Cesar Bombonato
Region Brazil
Timezone America/Sao_Paulo (UTC-3.0)
Stats Elevation 3,094 ft / 943 m (AMSL)
Location -18.883500° -48.225900°
Runways 1
Magnetic Variation 21.353° W

METAR

Not found

TAF

TAF SBUL 242100Z 2500/2512 06004KT 8000 NSCTN21/2509Z TX26/2511Z BECMG 2507/2509 12005KT BECMG 2510/2512 06010KT RMK PHG

Decode

Departure Runways

ID Width Length Bearing (true/mag) Surface Threshold Overrun Markings Lighting
04 148 ft / 45 m 6,920 ft / 2,109 m 22.57° / 43.93° ASPHALT 0 ft / 0 m 0 ft / 0 m PREC-APP EDGE THRESHOLD
22 148 ft / 45 m 6,920 ft / 2,109 m 202.57° / 223.92° ASPHALT 0 ft / 0 m 0 ft / 0 m PREC-APP EDGE THRESHOLD

SBGO

Details ICAO SBGO (GYN)
Name Goiania, Santa Genoveva
Region Brazil
Timezone America/Sao_Paulo (UTC-3.0)
Stats Elevation 2,451 ft / 747 m (AMSL)
Location -16.631900° -49.221100°
Runways 1
Magnetic Variation 21.081° W

METAR

SBGO 250000Z 01002G13KT CAVOK 28/16 Q1015

Decode

TAF

TAF SBGO 242200Z 2500/2524 34004KT CAVOK TN20/2508Z TX34/2518Z BECMG 2501/2503 03004KT PROB30 2518/2521 VRB05KT RMK PDS

Decode

Destination Runways

ID Width Length Bearing (true/mag) Surface Threshold Overrun Markings Lighting
14 148 ft / 45 m 8,208 ft / 2,502 m 120.42° / 141.50° ASPHALT 715 ft / 218 m 0 ft / 0 m PREC-APP CENTERLINE EDGE THRESHOLD REIL-OMNI
32 148 ft / 45 m 8,208 ft / 2,502 m 300.41° / 321.49° ASPHALT 0 ft / 0 m 0 ft / 0 m PREC-APP CENTERLINE EDGE THRESHOLD REIL-OMNI

Popular Alternatives